Weather in Uk

Russia / Irkutsk Oblast     55°04′41″N   98°51′34″E
temp.,
°C
wind,
m/s
gust,
m/s
humid.,
%
clouds,
%
prec.,
mm/h
press.,
hPa
HPBL,
m
23 january, sat
sat2323:00−7wnw31488100 0.0 1009617
02:00−12wsw2291100 0.0 101325
05:00−12wnw2493100 0.1 1017137
08:00−14wnw2689100 0.1 1021243
11:00−14w21084100 0.0 1026813
14:00−13wnw2774100 0.0 1028771
17:00−15nw118896 0.0 102920
20:00−18sw118998 0.0 103220
24 january, sun
sun2423:00−17w0189100 0.0 103320
02:00−17se1198100 0.3 103420
05:00−18sse1197100 0.1 103520
08:00−20ssw119897 0.2 103620
11:00−18s1189100 0.0 103652
14:00−15ese1184100 0.0 1034201
17:00−16ese1196100 0.0 103420
20:00−18sse1296100 0.0 103520
25 january, mon
mon2523:00−19s1192100 0.0 103520
02:00−20ssw1187100 0.0 103520
05:00−20wsw118693 0.0 103420
08:00−20sw118685 0.0 103420
11:00−18wsw118391 0.0 103527
14:00−15nnw357995 0.0 1034529
17:00−18nnw4691100 0.2 1036646
20:00−21nw3695100 0.3 1039378
26 january, tue
tue2623:00−23nw2498100 0.2 1041248
02:00−25nnw2498100 0.3 1042242
05:00−26n1398100 0.1 1043219
08:00−27nne1198100 0.3 1044155
11:00−27e1194100 0.1 1045205
14:00−26ene2291100 0.2 1044346
17:00−26ene1295100 0.1 1044330
20:00−28ne1299100 0.1 1046140
27 january, wed
wed2723:00−28nne1199100 0.1 1046106
02:00−29nne1299100 0.1 1047111
05:00−30nne1198100 0.1 1048124
08:00−31nne1298100 0.1 1049123
11:00−30nne1193100 0.1 1051171
14:00−28nne2189100 0.1 1051351
17:00−29ne1296100 0.0 1052210
20:00−33w0199100 0.1 105619